Home   Weather   Leon   Past weeks

Flag for Mexico Past Weather in Leon, Guanajuato, Mexico — Yesterday and Last 2 Weeks

Now
50 °F

Clear.


Feels Like: 50 °F
Forecast: 46 / 83 °F
Wind: No wind

Location: Del Bajio / Leon

Current Time: Feb 28, 2017 at 7:04:23 am

Latest Report: Feb 28, 2017 at 5:45 am


Visibility: 8 mi

Pressure: 29.91 "Hg (24.04 "Hg at 1808m altitude)

Humidity: 50%

Dew Point: 32 °F

Location of LeonLocation

Past Weather in Leon — Graph

°F

Leon Temperature Yesterday

Maximum temperature yesterday: 82 °F (at 3:48 pm)
Minimum temperature yesterday: 45 °F (at 6:40 am)
Average temperature yesterday: 66 °F

High & Low Weather Summary for the Past Weeks

 TemperatureHumidityPressure
High82 °F (Feb 24, 7:40 pm)87% (Feb 18, 6:44 am)30.39 "Hg (Feb 18, 6:44 am)
Low34 °F (Feb 21, 3:45 am)8% (Feb 22, 12:40 pm)29.74 "Hg (Feb 14, 5:45 pm)
Average63 °F36%30.11 "Hg
* Reported Feb 13 5:44 am — Feb 28 5:45 am, Leon, Weather by CustomWeather, © 2017

Note: Actual official high and low records may vary slightly from our data, if they occured in-between our weather recording intervals... More about our weather records

Advertising

Leon Weather History for the Previous 24 Hours

Scroll right to see more
 ConditionsComfort  
Time TempWeatherWind HumidityBarometerVisibility
5:45 am
Tue, Feb 28
50 °FClear.No wind50%29.91 "Hg8 mi
4:51 am52 °FClear.6 mph47%30.28 "Hg8 mi
11:44 pm
Mon, Feb 27
57 °FClear.7 mph33%29.91 "Hg8 mi
10:50 pm59 °FClear.No wind34%30.29 "Hg8 mi
9:50 pm63 °FClear.7 mph32%30.26 "Hg8 mi
8:42 pm66 °FClear.5 mph26%29.85 "Hg8 mi
7:48 pm72 °FClear.No wind23%30.22 "Hg8 mi
6:45 pm75 °FSunny.No wind19%30.21 "Hg10 mi
5:51 pm82 °FSunny.5 mph14%29.83 "Hg10 mi
4:53 pm82 °FSunny.8 mph15%30.18 "Hg10 mi
3:48 pm82 °FSunny.8 mph17%30.19 "Hg10 mi
2:48 pm81 °FSunny.6 mph18%29.85 "Hg10 mi
1:43 pm79 °FSunny.5 mph21%30.26 "Hg8 mi
12:42 pm79 °FSunny.6 mph21%30.29 "Hg8 mi
11:43 am73 °FSunny.5 mph25%29.97 "Hg8 mi
10:41 am70 °FSunny.5 mph31%30.34 "Hg8 mi
10:24 am68 °FSunny.3 mph33%30.34 "Hg8 mi
8:41 am59 °FSunny.No wind39%30.01 "Hg8 mi
7:43 am46 °FSunny.3 mph57%30.31 "Hg8 mi
Weather by CustomWeather, © 2017

See weather overviewHow to use our weather pages